Regional Weather Roundup
Issued by NWS

Home | Current Version | Previous Version | Graphics & Text | Print | Product List | Glossary On
Versions: 1 2 3 4 5 6 7 8 9 10 11 12 13 14 15 16 17 18 19 20 21 22 23 24 25 26 27 28 29 30 31 32 33 34 35 36 37 38 39 40 41 42 43 44 45 46 47 48 49 50
000
ASUS43 KLOT 280010
RWRIL

ILLINOIS REGIONAL WEATHER ROUNDUP
NATIONAL WEATHER SERVICE CHICAGO/ROMEOVILLE IL
600 PM CST FRI FEB 27 2015

NOTE: "FAIR" INDICATES FEW OR NO CLOUDS BELOW 12,000 FEET WITH NO
SIGNIFICANT WEATHER AND/OR OBSTRUCTIONS TO VISIBILITY.

* THESE STATIONS ARE NOT UNDER NWS QUALITY CONTROL. THEY ALSO MAY NOT
  REPORT WEATHER SUCH AS PRECIPITATION OR FOG.

ILZ001-002-007-009-015-016-024-280100-
NORTHWEST ILLINOIS

CITY           SKY/WX    TMP DP  RH WIND       PRES   REMARKS
MOLINE         CLEAR      7  -7  52 SW5       30.63S WCI  -2
6HR MIN TEMP:   7; 6HR MAX TEMP:  14;

STERLING*      CLEAR      3  -8  60 CALM      30.63R
SAVANNA*       CLEAR      7  -5  57 S5        30.63R WCI  -2
$$

ILZ003-004-008-010-011-017-018-280100-
NORTH CENTRAL ILLINOIS

CITY           SKY/WX    TMP DP  RH WIND       PRES   REMARKS
ROCKFORD       CLEAR      9  -6  50 SW6       30.61R WCI  -1
6HR MIN TEMP:   9; 6HR MAX TEMP:  12;

FREEPORT*      CLEAR      4  -5  65 SW8       30.60S WCI  -9
ROCHELLE*      CLEAR     -1  -7  76 SW10      30.62R WCI -18
DE KALB*       CLEAR      4  -5  64 SW6       30.60R WCI  -6
PERU*          CLEAR      8  -4  58 NW5       30.64S WCI   0
$$

ILZ005-006-012>014-019>023-280100-
NORTHEAST ILLINOIS

CITY           SKY/WX    TMP DP  RH WIND       PRES   REMARKS
CHICAGO-OHARE  PTCLDY    11  -5  48 SW8       30.60R WCI  -1
6HR MIN TEMP:  10; 6HR MAX TEMP:  14;

CHICAGO-MIDWAY PTCLDY    12  -3  51 SW12      30.62R WCI  -2
6HR MIN TEMP:  12; 6HR MAX TEMP:  17;

AURORA         CLEAR      7  -7  52 SW6       30.63R WCI  -3
6HR MIN TEMP:   7; 6HR MAX TEMP:  11;

LANSING*       CLEAR     10  -4  54 SW7       30.63R WCI  -2
JOLIET*        CLEAR      9  -4  55 CALM      30.65R
WAUKEGAN       CLEAR     10  -4  53 SW3       30.58R
6HR MIN TEMP:   8; 6HR MAX TEMP:  16;

DUPAGE AIRPORT CLEAR      6  -5  60 SW9       30.60R WCI  -8
6HR MIN TEMP:   6; 6HR MAX TEMP:  12; 6HR PCP: TRACE;

KANKAKEE*      CLEAR      5  -2  72 W6        30.65S WCI  -6
WHEELING       CLEAR     12  -6  44 W6        30.62R WCI   3
6HR MIN TEMP:  12; 6HR MAX TEMP:  17;

MORRIS*        CLEAR      5  -3  68 W3        30.64R
ROMEOVILLE*    CLEAR      5  -6  62 W6        30.63R WCI  -6
NORTHERLY ISL    N/A     15  -1  49 S7          N/A  WCI   5
$$

LMZ740>746-280100-
SOUTHERN LAKE MICHIGAN

STATION/POSITION SKY/WX   TEMP    WIND        PRES    VSBY  WAVE
                          AIR SEA DIR/SP/G                  HT/PER
                          (F)     (DEG/KT/KT) (MB)    (MI)  (FT/S)
WAUKEGAN HARBOR            13     260/  9/ 11   N/A
HARRISON CRIB              15     210/ 12/ 15   N/A
BURNHAM HARBOR             15     230/  7/ 10   N/A
CALUMET HARBOR             13     210/  7/ 11 1035.2R
MICHIGAN CITY              13     200/  6/  6   N/A
$$

ILZ025>027-034>036-040-047-049-050-058-095>099-280100-
WEST-CENTRAL ILLINOIS

CITY           SKY/WX    TMP DP  RH WIND       PRES   REMARKS
QUINCY         CLEAR     10  -4  53 CALM      30.61S
GALESBURG*     CLEAR      6  -4  64 CALM      30.62S
MACOMB*        CLEAR      4  -4  70 CALM      30.66R
JACKSONVILLE*  CLEAR     10  -1  58 E3        30.63F
PITTSFIELD*    PTCLDY    14  -2  50 NE3       30.62S
$$

ILZ028>032-037-038-041>044-048-051>054-059>061-280100-
CENTRAL ILLINOIS

CITY           SKY/WX    TMP DP  RH WIND       PRES   REMARKS
PONTIAC        CLEAR      5  -3  68 CALM      30.65S
BLOOMINGTON    CLEAR      9   0  67 CALM      30.63R
DECATUR        PTCLDY    10  -2  58 S5        30.64S WCI   2
PEORIA         CLEAR     12  -4  48 NW3       30.64S
6HR MIN TEMP:  12; 6HR MAX TEMP:  16;

LACON*         CLEAR      4  -7  59 CALM      30.64F
LINCOLN*       CLEAR     13   3  65 S5        30.68R WCI   5
SPRINGFIELD    PTCLDY     8  -2  63 W3        30.65S
6HR MIN TEMP:   7; 6HR MAX TEMP:  13;

TAYLORVILLE    PTCLDY    10   3  72 E5        30.64S WCI   2
$$

ILZ033-039-045-046-055>057-062-063-280100-
EAST-CENTRAL ILLINOIS

CITY           SKY/WX    TMP DP  RH WIND       PRES   REMARKS
CHAMPAIGN      CLEAR      5  -2  72 S6        30.64R WCI  -6
DANVILLE*      CLEAR     10   2  71 N6        30.61R WCI   0
RANTOUL*       CLEAR     11   1  65 N5        30.63S WCI   3
MATTOON        CLEAR     10  -1  61 NE6       30.63S WCI   0
PARIS*         CLEAR      8   1  73 CALM      30.65S
$$

ILZ079-100>102-280100-
SOUTHWEST ILLINOIS

CITY           SKY/WX    TMP DP  RH WIND       PRES   REMARKS
BELLEVILLE     MOCLDY    16   1  49 NE6       30.63R WCI   8
CAHOKIA*       MOCLDY    18   1  47 NE7       30.64R WCI   9
SPARTA*        CLOUDY    19   7  60 NE6       30.64S WCI  10
$$

ILZ064>066-069>071-074>076-080>082-084>086-088>090-092>094-280100-
SOUTH-CENTRAL ILLINOIS

CITY           SKY/WX    TMP DP  RH WIND       PRES   REMARKS
CARBONDALE     CLOUDY    21   6  52 NE5       30.64R WCI  15
6HR MIN TEMP:  19; 6HR MAX TEMP:  23;

CAIRO*         CLOUDY    27  11  52 N5        30.63S WCI  21
EFFINGHAM*     CLEAR     13  -1  54 N3        30.66F
MARION         CLOUDY    23  10  58 NE7       30.64R WCI  15
MT. VERNON     CLOUDY    18   1  49 NE8       30.64R WCI   7
CENTRALIA*     MOCLDY    16   1  51 N5        30.64R WCI   9
SALEM*         MOCLDY    17   3  54 NE5       30.65R WCI  10
METROPOLIS*    CLOUDY    24  11  58 NE5       30.62S WCI  18
$$

ILZ067-068-072-073-078-083-087-091-280100-
SOUTHEAST ILLINOIS

CITY           SKY/WX    TMP DP  RH WIND       PRES   REMARKS
LAWRENCEVILLE  CLEAR     16   4  59 N5        30.65S WCI   9
FLORA*         CLEAR     15   3  58 N3        30.66R
FAIRFIELD*     MOCLDY    17   5  58 CALM      30.65R
HARRISBURG*    CLOUDY    21  10  62 N5        30.66R WCI  14
ROBINSON*      CLEAR     14   1  56 N6        30.67S WCI   5
CARMI*         CLOUDY    22  12  65 N6        30.64R WCI  14
$$

ABBREVIATIONS USED IN REMARKS
   TC - TEMPERATURE IN CELSIUS
  WCI - WIND CHILL INDEX
   HX - HEAT INDEX
  VSB - VISIBILITY
$$




USA.gov is the U.S. government's official web portal to all federal, state and local government web resources and services.